Weather History for Cincinnati, OH

Change the Weather History Date:

Tuesday, December 4, 2012

  Actual Average Record
Temperature  
Mean Temperature 52 °F -  
Max Temperature 66 °F 46 °F 70 °F (1998)
Min Temperature 37 °F 29 °F 11 °F (1966)
Degree Days  
Heating Degree Days 12    
Growing Degree Days 2 (Base 50)    
Moisture  
Dew Point 50 °F    
Average Humidity 84    
Maximum Humidity 100    
Minimum Humidity 67    
Precipitation  
Precipitation 0.39 in - - ()
Sea Level Pressure  
Sea Level Pressure 30.12 in    
Wind  
Wind Speed 9 mph (West)    
Max Wind Speed 17 mph    
Max Gust Speed 25 mph    
Visibility 7 miles    
Events Fog , Rain    
Averages and records for this station are not official NWS values.
T = Trace of Precipitation, MM = Missing Value Source: NWS Daily Summary

Daily Weather History Graph

Daily Weather History Graph

Search for Another Location

Airport:

Trip Planner

Search our weather history database for the weather conditions in past years. The results will help you decide how hot, cold, wet, or windy it might be!

Date:

Astronomy

Dec. 04, 2012 Rise Set
Actual Time 7:41 AM EST 5:14 PM EST
Civil Twilight 7:11 AM EST 5:44 PM EST
Nautical Twilight 6:38 AM EST 6:17 PM EST
Astronomical Twilight 6:05 AM EST 6:50 PM EST
Moon 10:59 PM EST (12/4) 11:36 AM EST (12/4)
Length of Visible Light 10h 33m
Length of Day
9h 33m
Waning Gibbous, 69% of the Moon is Illuminated
Dec 4
Waning Gibbous
Dec 6
Last Quarter
Dec 13
New
Dec 20
First Quarter
Dec 28
Full

Hourly Weather History & Observations

Time (EST) Temp. Windchill Dew Point Humidity Pressure Visibility Wind Dir Wind Speed Gust Speed Precip Events Conditions
12:53 AM 59.0 °F - 51.8 °F 77% 30.11 in 10.0 mi South 8.1 mph - N/A   Mostly Cloudy
1:53 AM 59.0 °F - 50.0 °F 72% 30.10 in 10.0 mi SSW 8.1 mph - N/A   Overcast
2:53 AM 59.0 °F - 50.0 °F 72% 30.11 in 10.0 mi South 9.2 mph - N/A   Mostly Cloudy
3:53 AM 60.1 °F - 48.9 °F 67% 30.09 in 10.0 mi South 9.2 mph - N/A   Overcast
4:53 AM 59.0 °F - 48.9 °F 69% 30.09 in 10.0 mi SSW 5.8 mph - N/A   Overcast
5:53 AM 59.0 °F - 50.0 °F 72% 30.09 in 10.0 mi SSW 3.5 mph - N/A   Overcast
6:53 AM 59.0 °F - 50.0 °F 72% 30.09 in 10.0 mi SW 4.6 mph - N/A   Overcast
7:53 AM 60.1 °F - 51.1 °F 72% 30.09 in 10.0 mi SSW 8.1 mph - 0.00 in   Overcast
8:53 AM 61.0 °F - 53.1 °F 75% 30.10 in 10.0 mi SSW 9.2 mph - N/A   Overcast
9:53 AM 64.0 °F - 55.0 °F 73% 30.10 in 10.0 mi SSW 10.4 mph - N/A   Mostly Cloudy
10:53 AM 64.0 °F - 55.9 °F 75% 30.09 in 10.0 mi SSW 17.3 mph - N/A   Overcast
11:53 AM 66.0 °F - 57.0 °F 73% 30.07 in - North - - N/A   Overcast
12:53 PM 64.9 °F - 57.0 °F 75% 30.05 in 10.0 mi SSW 15.0 mph - N/A   Overcast
1:53 PM 64.0 °F - 57.0 °F 78% 30.02 in 10.0 mi SSW 16.1 mph - N/A   Overcast
2:53 PM 64.0 °F - 57.0 °F 78% 30.02 in 10.0 mi SSW 11.5 mph - N/A   Overcast
3:53 PM 62.1 °F - 59.0 °F 90% 30.02 in 7.0 mi SSW 10.4 mph - 0.00 in Rain Light Rain
4:49 PM 60.8 °F - 59.0 °F 94% 30.05 in 3.0 mi NNW 12.7 mph 19.6 mph 0.04 in   Overcast
4:53 PM 57.9 °F - 55.0 °F 90% 30.06 in 3.0 mi NNW 16.1 mph 25.3 mph 0.04 in Rain Light Rain
4:59 PM 53.6 °F - 53.6 °F 100% 30.07 in 2.5 mi North 16.1 mph 25.3 mph 0.10 in Rain Heavy Rain
5:01 PM 53.6 °F - 51.8 °F 94% 30.07 in 1.8 mi North 15.0 mph 25.3 mph 0.14 in Rain Heavy Rain
5:03 PM 53.6 °F - 51.8 °F 94% 30.07 in 1.5 mi North 12.7 mph 25.3 mph 0.18 in Rain Heavy Rain
5:09 PM 53.6 °F - 51.8 °F 94% 30.08 in 2.0 mi NNW 11.5 mph 21.9 mph 0.22 in Rain Heavy Rain
5:19 PM 51.8 °F - 48.2 °F 88% 30.10 in 4.0 mi NNW 15.0 mph 23.0 mph 0.26 in Rain Heavy Rain
5:30 PM 51.8 °F - 48.2 °F 88% 30.10 in 2.5 mi North 17.3 mph 24.2 mph 0.33 in Rain Heavy Rain
5:37 PM 51.8 °F - 48.2 °F 88% 30.11 in 4.0 mi North 11.5 mph 23.0 mph 0.33 in Rain Rain
5:50 PM 51.8 °F - 48.2 °F 88% 30.12 in 8.0 mi NNW 11.5 mph 17.3 mph 0.33 in Rain Light Rain
5:53 PM 51.1 °F - 48.9 °F 92% 30.13 in 7.0 mi North 11.5 mph - 0.34 in Rain Rain
6:23 PM 48.2 °F - 42.8 °F 82% 30.16 in 10.0 mi North 9.2 mph 20.7 mph 0.00 in Rain Light Rain
6:46 PM 48.2 °F - 42.8 °F 82% 30.18 in 8.0 mi North 5.8 mph - 0.00 in Rain Light Rain
6:53 PM 48.0 °F - 44.1 °F 86% 30.19 in 9.0 mi NNW 4.6 mph - 0.00 in Rain Light Rain
7:53 PM 46.9 °F - 42.1 °F 83% 30.19 in 10.0 mi Calm Calm - 0.01 in Rain Light Rain
8:53 PM 46.0 °F - 44.1 °F 93% 30.21 in 10.0 mi Calm Calm - 0.00 in   Overcast
9:53 PM 45.0 °F - 44.1 °F 97% 30.22 in 10.0 mi Calm Calm - N/A   Mostly Cloudy
10:53 PM 41.0 °F - 41.0 °F 100% 30.23 in 10.0 mi Calm Calm - N/A   Partly Cloudy
11:00 PM 42.8 °F - 41.0 °F 93% 30.23 in 0.5 mi Calm Calm - N/A Fog Fog
11:16 PM 39.2 °F - 39.2 °F 100% 30.22 in 0.2 mi Calm Calm - N/A Fog Fog
11:53 PM 37.9 °F 35.5 °F 37.9 °F 100% 30.24 in 0.2 mi SW 3.5 mph - N/A Fog Fog